[Date Prev][Date Next][Thread Prev][Thread Next] - [Date Index][Thread Index][Author Index]

2 Line ISS Keps 1-29



ISS
1 25544U 98067A   03029.16178241  .00006583  00000-0  86513-4 0  6361
2 25544  51.6370 358.5700 0005777  89.6605  95.7176 15.59857286239311


----
Via the sarex mailing list at AMSAT.ORG courtesy of AMSAT-NA.
To unsubscribe, send "unsubscribe sarex" to Majordomo@amsat.org



AMSAT Top AMSAT Home